Regional Weather Roundup
Issued by NWS Cleveland, OH

Home | Current Version | Previous Version | Graphics & Text | Print | Product List | Glossary On
Versions: 1 2 3 4 5 6 7 8 9 10 11 12 13 14 15 16 17 18 19 20 21 22 23 24 25 26 27 28 29 30 31 32 33 34 35 36 37 38 39 40 41 42 43 44 45 46 47 48 49 50
000
ASUS41 KCLE 020500
RWRCLE
OHIO REGIONAL WEATHER ROUNDUP
NATIONAL WEATHER SERVICE WILMINGTON, OH
100 AM EDT TUE JUN 02 2015

NOTE: "FAIR" INDICATES FEW OR NO CLOUDS BELOW 12,000 FEET WITH NO
SIGNIFICANT WEATHER AND/OR OBSTRUCTIONS TO VISIBILITY.

OHZ001>008-015>018-024>027-034-035-043-044-020600-
   NORTHWEST OHIO

CITY           SKY/WX    TMP DP  RH WIND       PRES   REMARKS
DEFIANCE       CLEAR     48  45  89 CALM      30.21R
FINDLAY        CLOUDY    54  48  80 NE7       30.18S
TOLEDO EXPRESS PTCLDY    49  43  80 CALM      30.20R
TOLEDO EXEC    CLOUDY    56  46  69 N3        30.20S
LIMA           PTCLDY    49  46  90 NE5       30.18S
$$

OHZ009>014-019>023-028>033-038-089-020600-
   NORTHEAST OHIO

CITY           SKY/WX    TMP DP  RH WIND       PRES   REMARKS
CLE-HOPKINS    CLOUDY    51  49  92 N5        30.20S
CLE-LAKEFRONT  CLOUDY    54  50  86 N9        30.18S
CUY CO. ARPT   NOT AVBL
LORAIN-ELYRIA  CLOUDY    50  47  89 N3        30.19S
ASHTABULA      CLOUDY    50  48  93 CALM      30.18F
AKRON-CANTON   CLOUDY    52  47  83 NE8       30.16S
WOOSTER        NOT AVBL
MANSFIELD      MOCLDY    48  48 100 N7        30.16F FOG
YOUNGSTOWN     CLOUDY    51  48  89 NE6       30.15F
$$

OHZ042-051>053-060>062-070>072-077>081-020600-
  SOUTHWEST OHIO

CITY           SKY/WX    TMP DP  RH WIND       PRES   REMARKS
CINC-COVINGTON CLOUDY    55  49  80 NE13      30.14S
CINC-LUNKEN    CLOUDY    55  49  80 NE9       30.16F
HAMILTON       CLOUDY    55  49  80 E8        30.17S
DAYTON         NOT AVBL
WRIGHT-PAT AFB CLEAR     50  47  91 NE5       30.16F
DAYTON GENERAL CLOUDY    51  48  89 NE6       30.16S
WILMINGTON     CLOUDY    52  48  86 NE8       30.15F
$$

OHZ036-037-039>041-045>050-054>059-063>069-073>076-082>088-020600-
  CENTRAL AND SOUTHEAST OHIO

CITY           SKY/WX    TMP DP  RH WIND       PRES   REMARKS
COLUMBUS       CLOUDY    53  47  79 NE9       30.15F
OSU AIRPORT    CLOUDY    52  47  83 NE5       30.16S
BOLTON FIELD   NOT AVBL
RICKENBACK AFB NOT AVBL
NEWARK         CLOUDY    53  48  83 N6        30.14F
MARION         CLOUDY    50  47  89 N6        30.17F
LANCASTER      CLOUDY    53  49  86 NE7       30.15F
ZANESVILLE     CLOUDY    52  47  83 NE7       30.13F
NEW PHILLY     CLOUDY    54  48  80 NE5       30.16F
$$


USA.gov is the U.S. government's official web portal to all federal, state and local government web resources and services.